St. Marys, AK

8:46 AM AKDT on September 18, 2019 (GMT -0800)
Saint Mary's

Weather History for PASM - August, 2019

Change the Weather History Date:

Sunday, August 25, 2019

  Actual Average Record
Temperature  
Mean Temperature 48 °F -  
Max Temperature 50 °F 53 °F 68 °F (2004)
Min Temperature 41 °F 41 °F 37 °F (1998)
Degree Days  
Heating Degree Days 18    
Moisture  
Dew Point 46 °F    
Average Humidity 88    
Maximum Humidity 96    
Minimum Humidity 77    
Precipitation  
Precipitation 0.01 in - - ()
Sea Level Pressure  
Sea Level Pressure 30.02 in    
Wind  
Wind Speed 6 mph ()    
Max Wind Speed 13 mph    
Max Gust Speed -    
Visibility 9.2 miles    
Events Rain    
Averages and records for this station are not official NWS values.
T = Trace of Precipitation, MM = Missing Value Source: Averaged Metar Reports

Daily Weather History Graph

Daily Weather History Graph

Search for Another Location

Airport or City:

Astronomy

Aug. 25, 2019 Rise Set
Actual Time 7:23 AM AKDT 10:24 PM AKDT
Civil Twilight 6:32 AM AKDT 11:15 PM AKDT
Nautical Twilight 5:19 AM AKDT 12:27 AM AKDT
Astronomical Twilight 3:27 AM AKDT 2:22 AM AKDT
Moon 1:03 AM AKDT (8/25) 8:16 PM AKDT (8/25)
Length of Visible Light 16h 43m
Length of Day
15h 00m
Waning Crescent, 27% of the Moon is Illuminated
Aug 25
Waning Crescent
Aug 30
New
Sep 5
First Quarter
Sep 13
Full
Sep 21
Last Quarter

Hourly Weather History & Observations

Time (AKDT) Temp. Windchill Dew Point Humidity Pressure Visibility Wind Dir Wind Speed Gust Speed Precip Events Conditions
12:02 AM 44.1 °F 40.1 °F 41.0 °F 89% 29.96 in 10.0 mi NW 6.9 mph - N/A   Clear
1:02 AM 42.1 °F 39.2 °F 39.9 °F 92% 29.97 in 10.0 mi NW 4.6 mph - N/A   Clear
2:02 AM 41.0 °F 36.4 °F 39.9 °F 96% 29.98 in 10.0 mi NW 6.9 mph - N/A   Clear
2:21 AM 44.6 °F 40.7 °F 41.0 °F 87% 29.96 in 10.0 mi NNW 6.9 mph - N/A   Mostly Cloudy
3:02 AM 44.6 °F 40.7 °F 42.8 °F 93% 29.96 in 10.0 mi NNW 6.9 mph - N/A   Overcast
3:08 AM 44.1 °F 40.8 °F 42.1 °F 93% 29.99 in 10.0 mi NNW 5.8 mph - N/A   Overcast
4:02 AM 46.0 °F - 43.0 °F 89% 29.99 in 10.0 mi Calm Calm - N/A   Overcast
5:02 AM 46.0 °F - 43.0 °F 89% 29.99 in 10.0 mi Calm Calm - N/A   Overcast
5:17 AM 46.4 °F - 44.6 °F 93% 29.97 in 10.0 mi Calm Calm - N/A   Overcast
6:02 AM 46.9 °F - 44.1 °F 90% 29.99 in 10.0 mi Calm Calm - N/A   Overcast
7:02 AM 46.9 °F - 44.1 °F 90% 30.00 in 10.0 mi West 3.5 mph - N/A   Overcast
8:02 AM 48.0 °F - 45.0 °F 89% 30.00 in 10.0 mi WNW 6.9 mph - N/A   Overcast
9:02 AM 48.0 °F - 45.0 °F 89% 30.01 in 10.0 mi WNW 8.1 mph - N/A   Overcast
10:02 AM 50.0 °F - 44.1 °F 80% 30.02 in 10.0 mi WNW 6.9 mph - N/A   Overcast
11:02 AM 50.0 °F - 45.0 °F 83% 30.03 in 10.0 mi West 8.1 mph - N/A   Overcast
11:45 AM 50.0 °F - 46.4 °F 87% 30.01 in 10.0 mi West 6.9 mph - N/A   Overcast
12:02 PM 51.8 °F - 46.4 °F 82% 30.01 in 10.0 mi West 8.1 mph - N/A   Overcast
12:11 PM 51.8 °F - 46.4 °F 82% 30.01 in 10.0 mi West 6.9 mph - N/A   Overcast
12:20 PM 51.1 °F - 46.9 °F 86% 30.04 in 10.0 mi West 8.1 mph - N/A   Overcast
12:27 PM 51.8 °F - 46.4 °F 82% 30.01 in 10.0 mi West 6.9 mph - N/A   Overcast
1:02 PM 51.1 °F - 46.0 °F 83% 30.04 in 10.0 mi WSW 4.6 mph - N/A   Overcast
1:39 PM 51.8 °F - 48.2 °F 88% 30.02 in 10.0 mi West 6.9 mph - N/A   Overcast
2:02 PM 50.0 °F - 48.0 °F 93% 30.05 in 3.0 mi WNW 9.2 mph - 0.00 in Rain Light Rain
2:13 PM 50.0 °F - 48.2 °F 94% 30.02 in 10.0 mi WSW 6.9 mph - 0.00 in Rain Light Rain
2:30 PM 51.8 °F - 48.2 °F 88% 30.02 in 10.0 mi SW 9.2 mph - 0.00 in   Overcast
3:02 PM 52.0 °F - 48.0 °F 86% 30.04 in 8.0 mi West 11.5 mph - 0.00 in   Overcast
3:08 PM 51.8 °F - 48.2 °F 88% 30.02 in 7.0 mi West 10.4 mph - N/A   Overcast
3:23 PM 51.8 °F - 48.2 °F 88% 30.02 in 10.0 mi West 8.1 mph - N/A   Overcast
4:02 PM 53.6 °F - 48.2 °F 82% 30.02 in 10.0 mi West 8.1 mph - N/A   Overcast
4:09 PM 53.6 °F - 46.4 °F 77% 30.02 in 10.0 mi West 8.1 mph - N/A   Overcast
4:24 PM 54.0 °F - 46.9 °F 77% 30.04 in 10.0 mi WSW 10.4 mph - N/A   Overcast
5:02 PM 53.1 °F - 48.9 °F 86% 30.04 in 6.0 mi WSW 5.8 mph - 0.00 in Rain Light Rain
5:35 PM 51.8 °F - 50.0 °F 94% 30.02 in 10.0 mi West 8.1 mph - 0.00 in   Overcast
6:02 PM 54.0 °F - 48.9 °F 83% 30.04 in 10.0 mi West 6.9 mph - 0.00 in   Overcast
6:34 PM 53.6 °F - 48.2 °F 82% 30.02 in 8.0 mi West 12.7 mph - N/A   Overcast
6:46 PM 51.8 °F - 50.0 °F 94% 30.02 in 1.8 mi West 8.1 mph - 0.01 in Rain Rain
6:54 PM 51.8 °F - 50.0 °F 94% 30.02 in 3.0 mi West 6.9 mph - 0.01 in Rain Light Rain
7:02 PM 51.8 °F - 50.0 °F 94% 30.02 in 10.0 mi West 5.8 mph - 0.01 in   Overcast
7:13 PM 53.1 °F - 48.9 °F 86% 30.05 in 10.0 mi WSW 4.6 mph - 0.01 in   Overcast
8:02 PM 54.0 °F - 48.0 °F 80% 30.05 in 10.0 mi West 8.1 mph - N/A   Overcast
8:20 PM 53.6 °F - 48.2 °F 82% 30.02 in 10.0 mi West 6.9 mph - N/A   Overcast
8:49 PM 53.6 °F - 50.0 °F 88% 30.03 in 10.0 mi West 8.1 mph - 0.00 in Rain Light Rain
9:02 PM 52.0 °F - 48.0 °F 86% 30.05 in 6.0 mi West 3.5 mph - 0.00 in   Overcast
10:02 PM 51.1 °F - 48.0 °F 89% 30.06 in 10.0 mi West 4.6 mph - N/A   Overcast
11:02 PM 50.0 °F - 48.0 °F 93% 30.07 in 10.0 mi West 3.5 mph - N/A   Overcast
11:59 PM 50.0 °F - 48.2 °F 94% 30.05 in 10.0 mi SW 3.5 mph - N/A   Overcast